Starlink 30428

operational
NORAD ID: 57906 Int'l Des: 2023-146 Owner: SPXS Country: US Constellation: starlink
LEOCIRCULAR

关于 Starlink 30428

正在加载描述...

实时位置

正在加载3D地球...

即将过境

高度历史

Altitude vs Time

uPlot chart will show altitude changes over time

两行轨道根数

1 57906U 23146R 26035.61629742 .00000870 00000-0 79433-4 0 9991
2 57906 43.0017 132.8446 0001106 277.2780 82.7936 15.02537013131033
Epoch: Feb 4, 2026 • Age: 15 hours

当前状态

高度 559.9 km
速度 7.59 km/s
星下点 27.82°N, 53.45°E
发射日期 Sep 20, 2023
运行时间 2.3 years
类型 internet

技术详情

分类 Payload
质量 730.00 kg
干质量 700.00 kg
总质量 730.00 kg
长度 0.30 m
直径 4.10 m
跨度 29.00 m
形状 Box + pan
制造商 SPXS
平台类型 Starlink V2M
阶段状态 In Orbit
所有者/国家 SPXS/US

大型星座

Loading constellations...